Location: *
(41.3833°S, 177.8333°W)
Time: 03:35:00
(UTC+00:00)

SL-16 R/B - Pass Details

Date: 01 April 2020
Orbit: 842 x 846 km, 71.0° (Epoch: 31 May)

Event Time Altitude Azimuth Distance (km) Brightness Sun altitude
Exits shadow 17:13:25 13° 254° (WSW) 2,302 3.9 -11.0°
Maximum altitude 17:15:47 16° 227° (SW) 2,109 3.9 -10.6°
Drops below altitude 10° 17:19:11 10° 190° (S) 2,500 4.6 -10.0°
Sets 17:22:45 0° 168° (SSE) 3,442 5.6 -9.3°
